BFT2MN EIDW-EGHQ

Flight info

Callsign BFT2MN
Flight time 0h 37m
Altitude 17000
Route PESIT4E PESIT DCT BAKUR N24 GUBJE DCT TIKCA
Aircraft A321/M-SDE3FGHIRWY/LB1

Departure

Time 2026-04-21 16:15
Airport Dublin Airport (EIDW)

Arrival

Time 2026-04-21 16:53
Airport Cornwall Airport Newquay (EGHQ)
Time Latitude Longitude Altitude Speed Heading
2026-04-21 15:26 53.42327 -6.24539 226 ft 0 kts 135°
2026-04-21 16:02 53.42328 -6.24541 225 ft 1 kts 135°
2026-04-21 16:02 53.42339 -6.24559 226 ft 3 kts 136°
2026-04-21 16:02 53.42353 -6.24583 225 ft 3 kts 136°
2026-04-21 16:03 53.42368 -6.24606 228 ft 3 kts 135°
2026-04-21 16:03 53.42383 -6.24629 228 ft 3 kts 145°
2026-04-21 16:03 53.42400 -6.24645 226 ft 3 kts 168°
2026-04-21 16:03 53.42416 -6.24646 226 ft 3 kts 217°
2026-04-21 16:04 53.42423 -6.24634 227 ft 2 kts 243°
2026-04-21 16:04 53.42431 -6.24607 226 ft 3 kts 243°
2026-04-21 16:04 53.42439 -6.24583 227 ft 1 kts 243°
2026-04-21 16:04 53.42440 -6.24581 227 ft 0 kts 243°
2026-04-21 16:07 53.42435 -6.24595 227 ft 2 kts 242°
2026-04-21 16:07 53.42422 -6.24636 228 ft 7 kts 242°
2026-04-21 16:07 53.42389 -6.24721 226 ft 10 kts 231°
2026-04-21 16:08 53.42264 -6.24939 225 ft 15 kts 227°
2026-04-21 16:08 53.42210 -6.25077 228 ft 14 kts 248°
2026-04-21 16:08 53.42211 -6.25257 225 ft 18 kts 275°
2026-04-21 16:09 53.42223 -6.25488 227 ft 21 kts 275°
2026-04-21 16:09 53.42237 -6.25739 226 ft 22 kts 275°
2026-04-21 16:09 53.42251 -6.25998 225 ft 22 kts 275°
2026-04-21 16:09 53.42265 -6.26262 227 ft 23 kts 275°
2026-04-21 16:10 53.42281 -6.26532 225 ft 24 kts 276°
2026-04-21 16:10 53.42296 -6.26808 225 ft 24 kts 274°
2026-04-21 16:10 53.42311 -6.27091 225 ft 25 kts 275°
2026-04-21 16:10 53.42326 -6.27380 225 ft 25 kts 275°
2026-04-21 16:11 53.42342 -6.27674 225 ft 26 kts 276°
2026-04-21 16:11 53.42359 -6.27975 225 ft 26 kts 276°
2026-04-21 16:11 53.42372 -6.28230 225 ft 18 kts 272°
2026-04-21 16:11 53.42317 -6.28317 227 ft 7 kts 187°
2026-04-21 16:12 53.42305 -6.28315 227 ft 0 kts 167°
2026-04-21 16:13 53.42304 -6.28314 227 ft 0 kts 166°
2026-04-21 16:13 53.42296 -6.28308 228 ft 4 kts 158°
2026-04-21 16:13 53.42256 -6.28270 233 ft 7 kts 158°
2026-04-21 16:13 53.42213 -6.28249 236 ft 8 kts 147°
2026-04-21 16:14 53.42195 -6.28137 235 ft 0 kts 97°
2026-04-21 16:14 53.42195 -6.28134 235 ft 0 kts 97°
2026-04-21 16:14 53.42194 -6.28126 235 ft 3 kts 97°
2026-04-21 16:14 53.42184 -6.27947 235 ft 43 kts 95°
2026-04-21 16:15 53.42135 -6.27035 232 ft 111 kts 95°
2026-04-21 16:15 53.42045 -6.25484 480 ft 143 kts 90°
2026-04-21 16:15 53.41949 -6.23798 1192 ft 147 kts 93°
2026-04-21 16:15 53.41842 -6.22046 1883 ft 156 kts 94°
2026-04-21 16:16 53.41730 -6.20239 2569 ft 155 kts 95°
2026-04-21 16:16 53.41609 -6.18451 3225 ft 154 kts 96°
2026-04-21 16:16 53.41479 -6.16640 3806 ft 160 kts 96°
2026-04-21 16:16 53.41342 -6.14750 4346 ft 167 kts 97°
2026-04-21 16:17 53.41197 -6.12795 4924 ft 171 kts 98°
2026-04-21 16:17 53.41071 -6.10794 5506 ft 174 kts 96°
2026-04-21 16:17 53.40983 -6.08767 6098 ft 176 kts 95°
2026-04-21 16:17 53.40914 -6.06698 6622 ft 181 kts 94°
2026-04-21 16:18 53.40801 -6.04507 7000 ft 198 kts 103°
2026-04-21 16:18 53.40274 -6.02341 7401 ft 212 kts 124°
2026-04-21 16:18 53.39110 -6.00707 7851 ft 231 kts 154°
2026-04-21 16:18 53.37474 -6.00221 8369 ft 247 kts 173°
2026-04-21 16:19 53.35703 -6.00294 8899 ft 262 kts 180°
2026-04-21 16:19 53.33848 -6.00594 9437 ft 274 kts 182°
2026-04-21 16:19 53.31935 -6.00982 9972 ft 279 kts 183°
2026-04-21 16:19 53.29998 -6.01388 10487 ft 283 kts 183°
2026-04-21 16:20 53.28027 -6.02043 10982 ft 296 kts 193°
2026-04-21 16:20 53.26025 -6.03103 11489 ft 307 kts 194°
2026-04-21 16:20 53.23958 -6.04177 12004 ft 316 kts 195°
2026-04-21 16:20 53.21827 -6.05262 12525 ft 324 kts 193°
2026-04-21 16:21 53.19629 -6.06274 13048 ft 331 kts 187°
2026-04-21 16:21 53.17330 -6.06784 13579 ft 336 kts 184°
2026-04-21 16:21 53.14977 -6.07169 14124 ft 344 kts 183°
2026-04-21 16:21 53.12577 -6.07457 14611 ft 349 kts 178°
2026-04-21 16:22 53.10148 -6.07133 15107 ft 352 kts 169°
2026-04-21 16:22 53.07749 -6.06170 15608 ft 357 kts 163°
2026-04-21 16:22 53.05334 -6.05064 16125 ft 363 kts 163°
2026-04-21 16:22 53.02882 -6.03943 16630 ft 369 kts 164°
2026-04-21 16:23 53.00389 -6.02804 17156 ft 374 kts 164°
2026-04-21 16:23 52.97869 -6.01653 17683 ft 378 kts 164°
2026-04-21 16:23 52.95316 -6.00490 18225 ft 383 kts 165°
2026-04-21 16:23 52.92736 -5.99320 18751 ft 387 kts 165°
2026-04-21 16:24 52.90127 -5.98141 19218 ft 390 kts 166°
2026-04-21 16:24 52.87496 -5.96953 19711 ft 394 kts 166°
2026-04-21 16:24 52.84842 -5.95752 20194 ft 397 kts 167°
2026-04-21 16:24 52.82167 -5.94544 20694 ft 400 kts 167°
2026-04-21 16:25 52.79472 -5.93331 21198 ft 403 kts 167°
2026-04-21 16:25 52.76763 -5.92112 21715 ft 405 kts 168°
2026-04-21 16:25 52.74038 -5.90891 22240 ft 407 kts 168°
2026-04-21 16:25 52.71335 -5.89683 22760 ft 409 kts 169°
2026-04-21 16:26 52.68543 -5.88436 23312 ft 410 kts 169°
2026-04-21 16:26 52.65783 -5.87198 23866 ft 412 kts 169°
2026-04-21 16:26 52.63045 -5.85968 24202 ft 417 kts 169°
2026-04-21 16:26 52.60206 -5.84702 24279 ft 429 kts 169°
2026-04-21 16:27 52.57286 -5.83404 24308 ft 441 kts 169°
2026-04-21 16:27 52.54292 -5.82072 24304 ft 448 kts 169°
2026-04-21 16:27 52.51274 -5.80724 24296 ft 450 kts 169°
2026-04-21 16:27 52.48249 -5.79373 24296 ft 451 kts 169°
2026-04-21 16:28 52.45221 -5.78022 24299 ft 451 kts 169°
2026-04-21 16:28 52.42190 -5.76675 24290 ft 451 kts 169°
2026-04-21 16:28 52.39165 -5.75335 24291 ft 451 kts 169°
2026-04-21 16:28 52.36145 -5.73942 24288 ft 451 kts 168°
2026-04-21 16:29 52.34150 -5.72986 24294 ft 451 kts 167°
2026-04-21 16:29 52.30127 -5.71004 24284 ft 451 kts 167°
2026-04-21 16:29 52.27127 -5.69509 24283 ft 451 kts 167°
2026-04-21 16:29 52.24133 -5.67977 24274 ft 452 kts 164°
2026-04-21 16:30 52.21212 -5.66033 24273 ft 454 kts 161°
2026-04-21 16:30 52.18299 -5.64055 24273 ft 454 kts 161°
2026-04-21 16:30 52.15382 -5.62091 24272 ft 454 kts 161°
2026-04-21 16:30 52.12463 -5.60135 24250 ft 454 kts 161°
2026-04-21 16:31 52.09541 -5.58181 24254 ft 454 kts 161°
2026-04-21 16:31 52.06601 -5.56317 24252 ft 451 kts 167°
2026-04-21 16:31 52.03563 -5.55296 24123 ft 442 kts 175°
2026-04-21 16:31 52.00556 -5.54488 23720 ft 434 kts 175°
2026-04-21 16:32 51.97587 -5.53715 23306 ft 430 kts 175°
2026-04-21 16:32 51.94636 -5.52968 22890 ft 427 kts 175°
2026-04-21 16:32 51.91710 -5.52238 22489 ft 424 kts 175°
2026-04-21 16:32 51.88797 -5.51511 22083 ft 422 kts 175°
2026-04-21 16:33 51.85940 -5.50796 21692 ft 420 kts 174°
2026-04-21 16:33 51.83060 -5.50069 21305 ft 418 kts 174°
2026-04-21 16:33 51.80201 -5.49347 20924 ft 415 kts 174°
2026-04-21 16:33 51.77356 -5.48627 20545 ft 413 kts 174°
2026-04-21 16:34 51.74529 -5.47908 20173 ft 410 kts 174°
2026-04-21 16:34 51.71717 -5.47191 19799 ft 408 kts 173°
2026-04-21 16:34 51.68923 -5.46482 19442 ft 406 kts 173°
2026-04-21 16:34 51.66146 -5.45779 19071 ft 402 kts 173°
2026-04-21 16:35 51.63391 -5.45083 18717 ft 399 kts 173°
2026-04-21 16:35 51.60651 -5.44391 18339 ft 398 kts 173°
2026-04-21 16:35 51.57927 -5.43704 17933 ft 395 kts 173°
2026-04-21 16:35 51.55224 -5.43025 17524 ft 392 kts 173°
2026-04-21 16:36 51.52541 -5.42350 17132 ft 388 kts 173°
2026-04-21 16:36 51.49877 -5.41680 16749 ft 387 kts 173°
2026-04-21 16:36 51.47227 -5.41017 16350 ft 384 kts 173°
2026-04-21 16:36 51.45481 -5.40583 16098 ft 383 kts 172°
2026-04-21 16:37 51.42869 -5.39932 15740 ft 378 kts 172°
2026-04-21 16:37 51.40283 -5.39292 15384 ft 374 kts 172°
2026-04-21 16:37 51.37718 -5.38653 15041 ft 371 kts 171°
2026-04-21 16:37 51.35179 -5.38018 14695 ft 366 kts 171°
2026-04-21 16:38 51.32685 -5.37394 14370 ft 359 kts 171°
2026-04-21 16:38 51.30233 -5.36785 14019 ft 355 kts 171°
2026-04-21 16:38 51.27806 -5.36181 13640 ft 352 kts 170°
2026-04-21 16:38 51.25396 -5.35583 13272 ft 349 kts 171°
2026-04-21 16:39 51.23002 -5.34991 12903 ft 346 kts 170°
2026-04-21 16:39 51.20628 -5.34406 12534 ft 344 kts 170°
2026-04-21 16:39 51.18267 -5.33824 12173 ft 342 kts 170°
2026-04-21 16:39 51.15927 -5.33247 11818 ft 339 kts 169°
2026-04-21 16:40 51.13604 -5.32673 11459 ft 337 kts 169°
2026-04-21 16:40 51.11297 -5.32105 11122 ft 334 kts 168°
2026-04-21 16:40 51.09014 -5.31544 10772 ft 331 kts 170°
2026-04-21 16:40 51.06740 -5.30987 10430 ft 330 kts 169°
2026-04-21 16:41 51.04480 -5.30434 10102 ft 327 kts 168°
2026-04-21 16:41 51.02234 -5.29882 9712 ft 327 kts 169°
2026-04-21 16:41 51.00005 -5.29335 9332 ft 318 kts 169°
2026-04-21 16:41 50.97871 -5.28816 8972 ft 303 kts 167°
2026-04-21 16:42 50.95809 -5.28317 8605 ft 299 kts 166°
2026-04-21 16:42 50.93772 -5.27822 8237 ft 294 kts 167°
2026-04-21 16:42 50.91750 -5.27326 7885 ft 293 kts 166°
2026-04-21 16:42 50.89756 -5.26835 7530 ft 284 kts 167°
2026-04-21 16:43 50.87840 -5.26368 7179 ft 273 kts 166°
2026-04-21 16:43 50.85989 -5.25918 6829 ft 266 kts 167°
2026-04-21 16:43 50.84194 -5.25481 6541 ft 257 kts 167°
2026-04-21 16:43 50.82445 -5.25057 6255 ft 251 kts 167°
2026-04-21 16:44 50.80759 -5.24647 5981 ft 246 kts 166°
2026-04-21 16:44 50.79098 -5.24245 5732 ft 239 kts 166°
2026-04-21 16:44 50.77467 -5.23849 5467 ft 236 kts 166°
2026-04-21 16:44 50.75873 -5.23461 5208 ft 227 kts 165°
2026-04-21 16:45 50.74349 -5.23093 5013 ft 217 kts 165°
2026-04-21 16:45 50.72864 -5.22732 4803 ft 215 kts 165°
2026-04-21 16:45 50.71389 -5.22370 4592 ft 214 kts 165°
2026-04-21 16:45 50.69916 -5.22008 4381 ft 214 kts 165°
2026-04-21 16:46 50.68447 -5.21650 4174 ft 214 kts 165°
2026-04-21 16:46 50.66979 -5.21295 3962 ft 213 kts 164°
2026-04-21 16:46 50.65515 -5.20942 3751 ft 212 kts 165°
2026-04-21 16:46 50.64057 -5.20590 3549 ft 211 kts 165°
2026-04-21 16:47 50.62604 -5.20240 3342 ft 211 kts 165°
2026-04-21 16:47 50.61156 -5.19891 3124 ft 211 kts 165°
2026-04-21 16:47 50.59713 -5.19542 2915 ft 207 kts 164°
2026-04-21 16:47 50.58313 -5.19206 2742 ft 201 kts 164°
2026-04-21 16:48 50.56937 -5.18874 2533 ft 199 kts 164°
2026-04-21 16:48 50.55569 -5.18542 2320 ft 199 kts 164°
2026-04-21 16:48 50.54203 -5.18209 2113 ft 198 kts 164°
2026-04-21 16:48 50.52843 -5.17881 2018 ft 197 kts 164°
2026-04-21 16:49 50.51536 -5.17384 1980 ft 190 kts 150°
2026-04-21 16:49 50.50494 -5.16295 1975 ft 167 kts 130°
2026-04-21 16:49 50.49846 -5.14926 1989 ft 153 kts 116°
2026-04-21 16:49 50.49318 -5.13517 1978 ft 145 kts 116°
2026-04-21 16:50 50.48817 -5.12176 1891 ft 140 kts 116°
2026-04-21 16:50 50.48334 -5.10887 1731 ft 129 kts 116°
2026-04-21 16:50 50.47892 -5.09707 1569 ft 123 kts 117°
2026-04-21 16:50 50.47467 -5.08572 1416 ft 119 kts 116°
2026-04-21 16:51 50.47048 -5.07453 1268 ft 119 kts 116°
2026-04-21 16:51 50.46627 -5.06329 1095 ft 119 kts 116°
2026-04-21 16:51 50.46203 -5.05202 935 ft 121 kts 117°
2026-04-21 16:51 50.45768 -5.04065 767 ft 122 kts 116°
2026-04-21 16:52 50.45341 -5.02913 610 ft 124 kts 117°
2026-04-21 16:52 50.44903 -5.01746 462 ft 122 kts 115°
2026-04-21 16:52 50.44487 -5.00630 328 ft 113 kts 115°
2026-04-21 16:52 50.44165 -4.99785 346 ft 57 kts 122°
2026-04-21 16:53 50.44099 -4.99600 353 ft 6 kts 112°
2026-04-21 16:53 50.44092 -4.99521 355 ft 8 kts 76°
2026-04-21 16:53 50.44147 -4.99495 360 ft 12 kts
2026-04-21 16:53 50.44252 -4.99498 350 ft 16 kts 333°
2026-04-21 16:54 50.44326 -4.99655 346 ft 20 kts 299°
2026-04-21 16:54 50.44402 -4.99858 337 ft 23 kts 300°
2026-04-21 16:54 50.44489 -5.00091 334 ft 26 kts 300°
2026-04-21 16:54 50.44583 -5.00350 325 ft 27 kts 299°
2026-04-21 16:55 50.44658 -5.00523 324 ft 10 kts 342°
2026-04-21 16:55 50.44677 -5.00480 324 ft 4 kts 83°
2026-04-21 16:55 50.44675 -5.00455 325 ft 0 kts 95°
2026-04-21 16:56 50.44679 -5.00444 325 ft 0 kts 130°